SCP
0 0 0 0 0 0 0 0 0 0 0 0 0 0 0 0 0 0 0 0 0 0 0 0 0 0 0 0 0 0 0 0 0 0 0 0 0 0 0 0 0 0 0
0 0 0 0 0 0 0 0 0 0 0 0 0 0 0 0 0 0 0 0 0 0 0 0 0 0 0 0 0 0 0 0 0 0 0 0 0 0 0 0 0 0 0
0 0 0 0 0 0 0 0 0 0 0 0 0 0 0 0 0 0 0 0 0 0 0 0 0 0 0 0 0 0 0 0 0 0 0 0 0 0 0 0 0 0 0
0 0 0 0 0 0 0 0 0 0 0 0 0 0 0 0 0 0 0 0 0 0 0 0 0 0 0 0 0 0 0 0 0 0 0 0 0 0 0 0 0 0 0
0 0 0 0 0 0 0 0 0 0 0 0 0 0 0 0 0 0 0 0 0 0 0 0 0 0 0 0 0 0 0 0 0 0 0 0 0 0 0 0 0 0 0
0 0 0 0 0 0 0 0 0 0 0 0 0 0 0 0 0 0 0 0 0 0 0 0 0 0 0 0 0 0 0 0 0 0 0 0 0 0 0 0 0 0 0
0 0 0 0 0 0 0 0 0 0 0 0 0 0 0 0 0 0 0 0 0 0 0 0 0 0 0 0 0 0 0 0 0 0 0 0 0 0 0 0 0 0 0
0 0 0 0 0 0 0 0 0 0 0 0 0 0 0 0 0 0 0 0 0 0 0 0 0 0 0 0 0 0 0 0 0 0 0 0 0 0 0 0 0 0 0
0 0 0 0 0 0 0 0 0 0 0 0 0 0 0 0 0 0 0 0 0 0 0 0 0 0 0 0 0 0 0 0 0 0 0 0 0 0 0 0 0 0 0
0 0 0 0 0 0 0 0 0 0 0 0 0 0 0 0 0 0 0 0 0 0 0 0 0 0 0 0 0 0 0 0 0 0 0 0 0 0 0 0 0 0 0
0 0 0 0 0 0 0 0 0 0 0 0 0 0 0 0 0 0 0 0 0 0 0 0 0 0 0 0 0 0 0 0 0 0 0 0 0 0 0 0 0 0 0
0 0 0 0 0 0 0 0 0 0 0 0 0 0 0 0 0 0 0 0 0 0 0 0 0 0 0 0 0 0 0 0 0 0 0 0 0 0 0 0 0 0 0
0 0 0 0 0 0 0 0 0 0 0 0 0 0 0 0 0 0 0 0 0 0 0 0 0 0 0 0 0 0 0 0 0 0 0 0 0 0 0 0 0 0 0
0 0 0 0 0 0 0 0 0 0 0 0 0 0 0 0 0 0 0 0 0 0 0 0 0 0 0 0 0 0 0 0 0 0 0 0 0 0 0 0 0 0 0
0 0 0 0 0 0 0 0 0 0 0 0 0 0 0 0 0 0 0 0 0 0 0 0 0 0 0 0 0 0 0 0 0 0 0 0 0 0 0 0 0 0 0
0 0 0 0 0 0 0 0 0 0 0 0 0 0 0 0 0 0 0 0 0 0 0 0 0 0 0 0 0 0 0 0 0 0 0 0 0 0 0 0 0 0 0
0 0 0 0 0 0 0 0 0 0 0 0 0 0 0 0 0 0 0 0 0 0 0 0 0 0 0 0 0 0 0 0 0 0 0 0 0 0 0 0 0 0 0
0 0 0 0 0 0 0 0 0 0 0 0 0 0 0 0 0 0 0 0 0 0 0 0 0 0 0 0 0 0 0 0 0 0 0 0 0 0 0 0 0 0 0
0 0 0 0 0 0 0 0 0 0 0 0 0 0 0 0 0 0 0 0 0 0 0 0 0 0 0 0 0 0 0 0 0 0 0 0 0 0 0 0 0 0 0
0 0 0 0 0 0 0 0 0 0 0 0 0 0 0 0 0 0 0 0 0 0 0 0 0 0 0 0 0 0 0 0 0 0 0 0 0 0 0 0 0 0 0
0 0 0 0 0 0 0 0 0 0 0 0 0 0 0 0 0 0 0 0 0 0 0 0 0 0 0 0 0 0 0 0 0 0 0 0 0 0 0 0 0 0 0
0 0 0 0 0 0 0 0 0 0 0 0 0 0 0 0 0 0 0 0 0 0 0 0 0 0 0 0 0 0 0 0 0 0 0 0 0 0 0 0 0 0 0
0 0 0 0 0 0 0 0 0 0 0 0 0 0 0 0 0 0 0 0 0 0 0 0 0 0 0 0 0 0 0 0 0 0 0 0 0 0 0 0 0 0 0
0 0 0 0 0 0 0 0 0 0 0 0 0 0 0 0 0 0 0 0 0 0 0 0 0 0 0 0 0 0 0 0 0 0 0 0 0 0 0 0 0 0 0
0 0 0 0 0 0 0 0 0 0 0 0 0 0 0 0 0 0 0 0 0 0 0 0 0 0 0 0 0 0 0 0 0 0 0 0 0 0 0 0 0 0 0
0 0 0 0 0 0 0 0 0 0 0 0 0 0 0 0 0 0 0 0 0 0 0 0 0 0 0 0 0 0 0 0 0 0 0 0 0 0 0 0 0 0 0
Wind_Speed
5 5 5 4 4 5 5 5 6 6 7 8 9 9 9 9 9 9 9 10 11 9 8 9 8 7 5 4 4 4 3 4 5 3 2 4 5 5 3 3 2 2 2
5 5 5 5 5 5 6 6 6 7 7 7 8 8 9 9 9 10 11 11 12 12 11 10 10 8 8 6 5 5 4 4 6 5 3 3 4 5 4 3 3 2 3
5 6 6 6 6 7 6 6 7 7 7 7 8 9 9 9 9 9 10 10 11 11 12 12 12 11 10 7 7 6 5 4 4 6 4 3 2 3 3 2 3 2 3
6 7 7 7 7 7 6 7 7 8 8 8 8 8 9 9 9 9 9 9 9 9 10 11 12 12 12 11 8 8 7 6 6 6 4 3 2 3 2 2 2 2 3
7 8 8 7 6 6 6 7 7 7 8 8 8 7 8 8 9 10 10 10 10 9 8 8 9 9 12 11 9 9 9 7 6 5 4 3 3 4 4 3 3 2 3
7 8 7 6 6 6 6 6 7 7 7 8 8 9 9 8 14 18 13 10 11 11 11 9 8 9 11 15 15 15 13 10 8 6 4 5 5 4 4 4 2 1 3
7 6 6 6 6 7 7 7 8 8 7 8 8 9 9 11 18 19 18 10 10 11 11 11 9 8 10 9 12 14 11 12 12 7 6 6 6 6 6 5 4 4 3
6 6 6 6 7 7 7 8 7 6 7 7 8 9 8 11 18 19 18 10 9 10 10 12 12 11 11 12 10 8 7 7 8 5 5 5 5 6 6 5 4 2 3
5 6 5 6 6 6 8 8 6 6 6 6 7 8 8 9 17 19 18 8 8 9 9 10 11 12 17 18 12 10 8 6 8 9 8 8 9 10 8 4 4 2 3
5 5 4 5 6 7 7 6 5 5 6 6 6 7 8 8 15 19 19 8 8 8 8 9 11 13 19 21 12 11 10 8 7 6 7 9 7 8 12 8 6 4 3
5 4 3 4 5 5 4 4 5 5 5 5 5 5 6 8 13 19 21 9 9 9 8 8 9 18 21 21 16 11 12 9 7 6 5 5 5 5 6 7 7 6 6
3 2 2 2 3 3 5 4 5 6 6 5 5 5 4 6 9 15 21 18 14 9 8 8 10 20 21 21 16 14 16 11 6 6 6 7 7 7 7 7 8 7 7
2 2 1 1 2 3 4 5 5 5 5 5 5 5 5 5 8 16 18 20 19 10 7 13 15 20 19 16 18 18 12 8 7 7 8 8 7 7 6 5 6 6 6
2 2 1 2 2 3 3 4 5 5 5 5 6 5 5 5 6 6 7 9 13 11 8 10 17 18 15 11 10 12 8 8 8 9 8 6 5 6 6 6 6 5 4
2 2 2 2 3 3 3 3 4 4 5 6 5 5 6 6 9 13 9 7 7 7 7 6 6 6 8 7 7 7 7 8 8 8 7 7 7 7 7 6 5 5 6
2 2 2 2 2 2 2 2 5 5 7 8 8 7 5 8 10 14 16 15 15 14 9 6 7 7 8 8 8 8 8 9 9 8 8 8 8 8 7 6 6 7 8
2 2 1 2 2 2 3 3 2 3 5 6 7 8 7 8 9 11 13 14 16 16 9 7 7 7 7 8 8 8 8 8 8 8 8 8 8 7 7 7 7 7 8
2 2 2 2 2 2 3 3 3 3 2 2 3 5 6 6 7 9 11 10 8 10 6 6 6 7 7 7 7 7 7 7 7 7 8 8 8 8 8 8 8 9 8
2 1 1 1 1 2 2 2 2 2 2 2 1 1 2 4 4 6 6 4 4 4 4 4 4 5 5 6 6 6 7 7 7 7 7 8 8 8 8 8 7 9 8
2 1 0 1 1 1 1 2 2 2 2 1 1 0 0 1 1 1 2 1 1 2 2 2 2 3 3 3 4 4 5 6 7 7 7 7 7 7 8 8 8 7 7
2 1 1 1 1 1 1 1 1 2 2 2 1 0 2 1 1 1 1 1 1 1 1 1 1 1 2 2 3 3 4 4 4 5 6 6 6 6 6 6 7 7 6
2 1 1 1 2 2 2 2 2 2 2 2 1 2 3 2 1 1 1 1 1 1 0 1 1 1 2 2 3 3 4 4 4 4 4 4 5 6 6 6 6 6 6
2 2 2 3 2 3 3 3 2 2 2 2 2 2 2 2 1 1 1 1 2 2 2 1 0 0 1 1 1 2 3 4 4 4 4 4 4 5 5 6 7 7 7
3 3 3 3 3 3 3 3 3 3 2 2 2 2 1 1 1 1 1 1 1 1 1 1 1 1 1 1 1 1 1 2 2 3 5 5 5 5 5 5 6 7 6
4 4 4 3 3 3 3 3 3 2 2 2 1 1 1 1 1 1 1 1 1 1 2 1 1 1 2 2 2 2 3 3 2 3 3 4 5 6 5 6 5 5 5
4 4 3 3 3 3 2 2 2 2 2 1 1 1 1 1 0 1 1 1 1 1 1 1 2 2 3 3 4 5 5 5 5 5 4 4 5 5 5 5 6 5 6
Wind_Direction
206 203 200 201 195 186 183 179 171 167 168 173 177 179 183 185 184 184 184 180 182 180 175 175 173 159 157 150 142 143 133 124 130 129 113 138 154 170 181 193 203 218 247
209 205 203 198 191 189 188 180 171 171 172 174 172 177 183 185 185 187 186 183 182 181 179 173 170 163 159 154 149 145 135 120 130 139 137 151 167 173 177 194 206 217 236
206 208 208 203 198 198 192 180 173 172 171 170 172 180 184 185 187 190 186 185 185 183 179 176 171 166 165 159 152 145 133 116 114 137 143 143 148 163 172 207 217 230 242
204 208 215 212 206 201 191 182 178 174 174 177 181 183 182 182 186 185 183 182 180 178 177 176 173 173 169 161 154 148 136 127 124 131 134 146 154 149 163 200 226 232 250
205 213 219 213 204 195 190 184 176 175 177 175 177 179 179 182 187 184 182 179 174 170 168 169 169 165 167 162 158 156 149 142 142 144 152 154 165 169 189 186 211 240 259
216 221 217 206 200 195 189 180 176 177 175 174 181 183 186 192 196 193 184 180 175 172 168 161 155 154 162 167 166 164 159 155 160 162 168 177 186 180 167 179 189 205 260
228 225 214 204 201 196 183 180 185 184 179 183 187 187 193 199 198 196 191 179 178 176 170 163 161 161 157 156 163 165 171 180 177 166 175 187 180 177 169 181 197 207 226
241 233 217 205 203 192 185 191 190 184 187 190 192 192 193 201 201 197 189 180 177 175 172 169 165 162 169 160 156 157 168 182 186 186 183 180 171 162 169 176 184 206 263
255 245 229 211 204 195 196 195 188 183 190 192 190 190 193 200 203 197 186 173 177 175 171 170 166 167 177 170 162 166 175 192 201 197 192 193 193 190 180 158 163 179 249
272 260 236 212 205 203 200 191 182 183 188 184 191 191 192 195 203 200 188 177 178 172 171 173 174 176 181 178 172 173 183 191 183 189 199 207 204 208 209 198 185 192 212
284 265 237 210 202 197 187 178 169 170 174 183 189 189 192 194 206 206 197 184 183 178 179 179 185 188 190 189 186 187 195 181 175 182 187 194 200 208 213 209 202 203 208
297 272 240 205 184 171 169 170 168 170 179 185 187 191 196 195 202 212 209 198 190 185 185 179 186 192 196 197 195 197 199 186 173 180 195 207 211 213 213 211 211 216 222
304 274 229 174 167 167 172 175 172 176 184 189 191 199 198 197 210 215 217 208 200 191 186 186 188 195 198 201 203 201 194 185 185 196 210 216 213 210 201 202 207 215 231
279 261 209 185 181 174 178 180 184 187 191 193 196 201 197 196 202 205 208 205 203 200 190 191 195 200 200 195 197 203 196 192 196 207 214 213 198 197 202 198 203 202 230
276 246 219 206 193 185 187 195 194 197 199 196 200 197 195 204 210 206 199 197 189 189 169 167 177 182 192 191 194 197 195 196 205 211 211 209 206 207 209 198 197 197 218
266 243 220 206 199 191 183 192 207 202 208 215 210 204 210 214 213 212 212 208 201 192 178 180 187 191 196 196 199 201 201 205 208 209 210 211 211 210 210 201 200 210 228
255 250 228 201 194 191 186 186 192 208 211 219 223 223 222 219 217 215 215 212 207 199 197 193 196 198 201 201 203 206 208 208 206 208 212 213 212 211 209 208 209 216 227
271 252 228 211 199 193 194 190 184 184 181 201 228 230 227 223 214 213 215 210 208 204 200 198 200 201 202 205 207 209 209 205 207 210 213 214 212 212 212 213 214 218 224
289 265 235 199 183 185 181 177 178 183 176 162 134 274 260 238 219 215 209 205 202 202 202 204 203 203 206 207 209 208 207 208 208 210 215 215 213 212 217 217 217 219 220
301 303 235 155 142 153 157 156 157 155 146 130 122 139 233 145 172 195 199 190 190 190 191 200 197 196 204 211 214 212 213 214 211 212 216 216 213 212 216 216 216 219 222
317 342 56 89 97 107 111 115 117 120 121 115 101 58 101 115 127 132 143 146 151 161 172 185 196 202 203 206 210 215 219 223 219 217 216 213 209 212 215 215 216 218 221
338 21 62 81 80 83 88 87 93 99 105 105 74 31 51 69 71 68 66 60 47 39 17 201 214 215 206 207 214 221 225 226 222 220 218 216 214 212 210 212 214 215 215
11 46 65 69 75 82 83 78 80 83 81 76 72 61 51 56 56 52 48 39 36 26 17 20 355 300 317 273 240 223 224 225 219 213 216 216 216 217 213 213 211 210 213
28 49 62 66 69 74 80 78 76 76 75 74 68 65 64 62 56 44 33 21 20 11 8 8 349 304 305 301 288 279 258 249 231 217 212 216 217 217 213 214 212 210 208
35 48 56 59 62 64 68 69 68 68 66 65 64 59 54 51 37 12 2 11 5 354 346 340 330 312 295 289 287 284 278 274 254 228 213 212 215 215 211 208 206 203 202
39 44 49 52 54 56 62 65 62 57 53 46 42 35 26 9 340 326 327 333 332 319 310 306 294 292 292 289 278 274 268 260 245 228 210 204 208 211 202 201 198 199 198